• In Belarus
  • List of Countries
  • For 7 days
  • Water Temperature
  • Satellite Maps
  • Weather Map
  • Weather Widgets
  • user-avatar
    Login

    Hourly Weather Karibib

    Today, 18 March, Monday

    Time Temperature Precipitation Wind Pressure Humidity
    00:00 +27°C° 0 mm 1 mps 664 mmHg 33%
    01:00 +27°C° 0 mm 1 mps 664 mmHg 33%
    02:00 +27°C° 0 mm 1 mps 664 mmHg 33%
    03:00 +27°C° 0 mm 1 mps 664 mmHg 32%
    04:00 +27°C° 0 mm 1 mps 664 mmHg 32%
    05:00 +27°C° 0 mm 1 mps 664 mmHg 32%
    06:00 +28°C° 0 mm 1 mps 665 mmHg 32%
    07:00 +29°C° 0 mm 1 mps 665 mmHg 28%
    08:00 +31°C° 0 mm 1 mps 665 mmHg 25%
    09:00 +32°C° 0 mm 1 mps 666 mmHg 22%
    10:00 +34°C° 0 mm 1 mps 666 mmHg 19%
    11:00 +35°C° 0 mm 1 mps 666 mmHg 18%
    12:00 +37°C° 0 mm 2 mps 666 mmHg 17%
    13:00 +38°C° 0 mm 2 mps 665 mmHg 16%
    14:00 +37°C° 0 mm 3 mps 665 mmHg 17%
    15:00 +36°C° 0 mm 4 mps 665 mmHg 18%
    16:00 +36°C° 0 mm 6 mps 665 mmHg 20%
    17:00 +34°C° 0 mm 5 mps 665 mmHg 23%
    18:00 +32°C° 0 mm 4 mps 665 mmHg 26%
    19:00 +29°C° 0 mm 4 mps 664 mmHg 29%
    20:00 +28°C° 0 mm 3 mps 665 mmHg 32%
    21:00 +27°C° 0 mm 2 mps 665 mmHg 34%
    22:00 +26°C° 0 mm 1 mps 665 mmHg 37%
    23:00 +26°C° 0 mm 1 mps 665 mmHg 38%

    Tomorrow, 19 March, Tuesday

    Time Temperature Precipitation Wind Pressure Humidity
    00:00 +25°C° 0 mm 1 mps 664 mmHg 38%
    01:00 +25°C° 0 mm 1 mps 664 mmHg 39%
    02:00 +25°C° 0 mm 1 mps 664 mmHg 38%
    03:00 +25°C° 0 mm 1 mps 664 mmHg 37%
    04:00 +26°C° 0 mm 1 mps 664 mmHg 36%
    05:00 +26°C° 0 mm 1 mps 664 mmHg 36%
    06:00 +27°C° 0 mm 1 mps 664 mmHg 35%
    07:00 +25°C° 0 mm 0 mps 665 mmHg 35%
    08:00 +28°C° 0 mm 1 mps 665 mmHg 33%
    09:00 +28°C° 0 mm 1 mps 665 mmHg 30%
    10:00 +29°C° 0 mm 1 mps 666 mmHg 28%
    11:00 +30°C° 0 mm 1 mps 665 mmHg 27%
    12:00 +31°C° 0 mm 1 mps 665 mmHg 25%
    13:00 +32°C° 0 mm 2 mps 665 mmHg 24%
    14:00 +34°C° 0 mm 2 mps 665 mmHg 22%
    15:00 +35°C° 0 mm 2 mps 665 mmHg 21%
    16:00 +36°C° 0 mm 3 mps 665 mmHg 19%
    17:00 +34°C° 0 mm 3 mps 665 mmHg 21%
    18:00 +31°C° 0 mm 3 mps 665 mmHg 23%
    19:00 +30°C° 0 mm 3 mps 665 mmHg 26%
    20:00 +28°C° 0 mm 2 mps 665 mmHg 29%
    21:00 +27°C° 0 mm 1 mps 665 mmHg 32%
    22:00 +23°C° 0 mm 0 mps 665 mmHg 36%
    23:00 +23°C° 0 mm 0 mps 664 mmHg 36%

    Day after tomorrow, 20 March, Wednesday

    Time Temperature Precipitation Wind Pressure Humidity
    00:00 +22°C° 0 mm 0 mps 664 mmHg 37%
    01:00 +22°C° 0 mm 0 mps 664 mmHg 38%
    02:00 +24°C° 0 mm 1 mps 664 mmHg 37%
    03:00 +24°C° 0 mm 1 mps 664 mmHg 37%
    04:00 +24°C° 0 mm 1 mps 664 mmHg 36%
    05:00 +25°C° 0 mm 1 mps 664 mmHg 35%
    06:00 +26°C° 0 mm 1 mps 665 mmHg 34%
    07:00 +26°C° 0 mm 1 mps 665 mmHg 32%
    08:00 +29°C° 0 mm 2 mps 666 mmHg 28%
    09:00 +31°C° 0 mm 3 mps 667 mmHg 23%
    10:00 +35°C° 0 mm 4 mps 667 mmHg 18%
    11:00 +36°C° 0 mm 4 mps 667 mmHg 17%
    12:00 +37°C° 0 mm 4 mps 666 mmHg 16%
    13:00 +38°C° 0 mm 4 mps 666 mmHg 15%
    14:00 +38°C° 0 mm 4 mps 665 mmHg 15%
    15:00 +39°C° 0 mm 5 mps 665 mmHg 15%
    16:00 +39°C° 0 mm 6 mps 665 mmHg 15%
    17:00 +36°C° 0 mm 6 mps 664 mmHg 17%
    18:00 +33°C° 0 mm 5 mps 664 mmHg 19%
    19:00 +30°C° 0 mm 5 mps 664 mmHg 21%
    20:00 +29°C° 0 mm 4 mps 664 mmHg 23%
    21:00 +28°C° 0 mm 4 mps 665 mmHg 25%
    22:00 +27°C° 0 mm 3 mps 665 mmHg 27%
    23:00 +26°C° 0 mm 2 mps 664 mmHg 28%

    21 March, Thursday

    Time Temperature Precipitation Wind Pressure Humidity
    00:00 +25°C° 0 mm 2 mps 664 mmHg 28%
    01:00 +24°C° 0 mm 1 mps 663 mmHg 29%
    02:00 +24°C° 0 mm 1 mps 663 mmHg 29%
    03:00 +24°C° 0 mm 1 mps 663 mmHg 29%
    04:00 +21°C° 0 mm 0 mps 663 mmHg 29%
    05:00 +24°C° 0 mm 1 mps 663 mmHg 29%
    06:00 +26°C° 0 mm 1 mps 664 mmHg 28%
    07:00 +27°C° 0 mm 1 mps 665 mmHg 27%
    08:00 +29°C° 0 mm 1 mps 665 mmHg 23%
    09:00 +31°C° 0 mm 1 mps 666 mmHg 19%
    10:00 +34°C° 0 mm 1 mps 666 mmHg 15%
    11:00 +35°C° 0 mm 1 mps 666 mmHg 14%
    12:00 +36°C° 0 mm 1 mps 666 mmHg 13%
    13:00 +37°C° 0 mm 1 mps 665 mmHg 12%
    14:00 +38°C° 0 mm 3 mps 665 mmHg 12%
    15:00 +39°C° 0 mm 5 mps 665 mmHg 12%
    16:00 +39°C° 0 mm 7 mps 664 mmHg 11%
    17:00 +36°C° 0 mm 6 mps 664 mmHg 13%
    18:00 +33°C° 0 mm 5 mps 664 mmHg 14%
    19:00 +29°C° 0 mm 4 mps 664 mmHg 16%
    20:00 +28°C° 0 mm 3 mps 664 mmHg 18%
    21:00 +27°C° 0 mm 2 mps 664 mmHg 21%
    22:00 +25°C° 0 mm 1 mps 664 mmHg 24%
    23:00 +25°C° 0 mm 1 mps 664 mmHg 25%

    22 March, Friday

    Time Temperature Precipitation Wind Pressure Humidity
    00:00 +22°C° 0 mm 0 mps 664 mmHg 26%
    01:00 +21°C° 0 mm 0 mps 663 mmHg 28%
    02:00 +21°C° 0 mm 0 mps 663 mmHg 27%
    03:00 +20°C° 0 mm 0 mps 663 mmHg 26%
    04:00 +20°C° 0 mm 0 mps 662 mmHg 25%
    05:00 +23°C° 0 mm 1 mps 663 mmHg 24%
    06:00 +25°C° 0 mm 1 mps 664 mmHg 23%
    07:00 +26°C° 0 mm 1 mps 664 mmHg 21%
    08:00 +29°C° 0 mm 1 mps 665 mmHg 18%
    09:00 +32°C° 0 mm 1 mps 666 mmHg 14%
    10:00 +34°C° 0 mm 1 mps 666 mmHg 11%
    11:00 +36°C° 0 mm 1 mps 666 mmHg 11%
    12:00 +38°C° 0 mm 2 mps 666 mmHg 11%
    13:00 +39°C° 0 mm 3 mps 665 mmHg 11%
    14:00 +40°C° 0 mm 4 mps 665 mmHg 10%
    15:00 +40°C° 0 mm 6 mps 665 mmHg 10%
    16:00 +39°C° 0 mm 7 mps 665 mmHg 10%
    17:00 +36°C° 0 mm 6 mps 664 mmHg 12%
    18:00 +33°C° 0 mm 5 mps 664 mmHg 14%
    19:00 +30°C° 0 mm 4 mps 664 mmHg 17%
    20:00 +28°C° 0 mm 3 mps 665 mmHg 19%
    21:00 +27°C° 0 mm 2 mps 665 mmHg 21%
    22:00 +26°C° 0 mm 1 mps 665 mmHg 23%
    23:00 +25°C° 0 mm 1 mps 664 mmHg 24%

    23 March, Saturday

    Time Temperature Precipitation Wind Pressure Humidity
    00:00 +22°C° 0 mm 0 mps 664 mmHg 26%
    01:00 +22°C° 0 mm 0 mps 663 mmHg 27%
    02:00 +22°C° 0 mm 0 mps 663 mmHg 26%
    03:00 +21°C° 0 mm 0 mps 663 mmHg 26%
    04:00 +23°C° 0 mm 1 mps 662 mmHg 25%
    05:00 +24°C° 0 mm 1 mps 663 mmHg 24%
    06:00 +26°C° 0 mm 1 mps 664 mmHg 23%
    07:00 +27°C° 0 mm 1 mps 664 mmHg 22%
    08:00 +30°C° 0 mm 1 mps 665 mmHg 18%
    09:00 +32°C° 0 mm 1 mps 666 mmHg 15%
    10:00 +35°C° 0 mm 1 mps 666 mmHg 11%
    11:00 +36°C° 0 mm 1 mps 666 mmHg 11%
    12:00 +37°C° 0 mm 1 mps 666 mmHg 11%
    13:00 +38°C° 0 mm 2 mps 665 mmHg 11%
    14:00 +38°C° 0 mm 3 mps 665 mmHg 12%
    15:00 +37°C° 0 mm 5 mps 665 mmHg 12%
    16:00 +38°C° 0 mm 6 mps 665 mmHg 12%
    17:00 +34°C° 0 mm 5 mps 665 mmHg 16%
    18:00 +32°C° 0 mm 4 mps 664 mmHg 20%
    19:00 +28°C° 0 mm 3 mps 664 mmHg 24%
    20:00 +27°C° 0 mm 3 mps 664 mmHg 27%
    21:00 +26°C° 0 mm 2 mps 664 mmHg 30%
    22:00 +25°C° 0 mm 1 mps 664 mmHg 32%
    23:00 +25°C° 0 mm 1 mps 664 mmHg 31%
    Show more